{"data":{"norad_id":24307,"intl_designator":"1996-053A","name":"INMARSAT 3-F2","alt_names":[],"object_type":"PAYLOAD","status":"ACTIVE","operator":null,"country":"IM","launch_date":"1996-09-06","launch_site_code":"TYMSC","launch_vehicle":null,"mission":null,"orbit_class":"UNKNOWN","rcs_meters":830.0351,"size_class":null,"mass_kg":null,"dimensions":null,"purposes":["comms"],"wikipedia_slug":null,"has_3d_model":false,"image_url":null,"decayed_at":null,"tle_current":{"epoch":"2026-05-24T13:37:38.563680Z","epoch_age_seconds":106265,"freshness":"FRESH","line1":"1 24307U 96053A   26144.56780745 -.00000072  00000+0  00000+0 0  9996","line2":"2 24307   9.8051  54.1761 0006763   9.9122 194.6495  1.00003680108689","mean_motion":1.0000368,"eccentricity":0.0006763,"inclination_deg":9.8051,"raan_deg":54.1761,"arg_perigee_deg":9.9122,"mean_anomaly_deg":194.6495,"bstar":0,"rev_number":10868,"period_min":1439.94700995,"perigee_km":35833.35543899,"apogee_km":35890.489343322,"semimajor_km":42240.059391156,"source":"CELESTRAK","updated_at":"2026-05-25T13:38:13.806994Z"}}}